Theta_e
322 326 321 331 345 342 343 347 345 346 348 347 349 350 349 348 348 350 349 348 347 346 346 347 345 345 344 343 344 343 341 342 341 340 340 340 341 342 342 341 340 340 338 338 337 335 336 338 339 339 338 338 338 340 341 340 338 338 340 339 337 336 334 334 333 333 338 342 343 342 340 340 339 338 337 336 335 334 334 335 336 337 337 336 335
322 329 325 331 343 342 346 352 349 350 350 349 351 350 349 349 348 350 350 347 348 347 346 346 345 345 345 344 344 343 342 342 342 341 340 340 340 341 342 341 341 340 339 339 338 336 337 338 340 340 338 337 338 339 339 339 339 339 340 340 339 339 337 335 333 334 339 343 343 343 342 341 340 338 338 337 335 334 334 336 336 337 337 336 336
320 330 331 333 344 346 350 354 351 351 352 351 352 351 351 350 349 351 350 348 347 347 347 347 346 345 345 344 343 343 343 342 342 341 340 340 340 340 342 341 340 340 339 339 339 338 337 338 339 339 339 339 338 338 339 339 340 340 340 340 340 340 340 338 335 333 336 340 343 343 343 343 342 339 338 337 336 335 335 336 337 337 337 336 335
319 327 331 334 346 350 352 353 351 352 352 352 353 352 352 350 350 352 351 349 349 348 347 347 346 346 345 345 343 344 343 342 342 341 340 341 340 340 341 341 340 340 340 339 340 339 338 339 340 339 338 339 339 338 339 339 339 340 340 340 340 340 340 338 336 334 334 339 343 343 343 342 342 341 339 337 336 337 336 336 338 338 337 336 334
320 324 327 332 347 352 350 351 351 352 352 352 353 352 351 350 350 352 351 350 349 348 347 347 347 346 346 345 344 343 343 342 342 341 341 341 340 340 340 341 340 340 340 340 340 340 339 339 340 340 339 339 340 339 339 339 339 339 339 339 339 340 339 336 336 337 335 338 341 342 344 343 342 341 340 338 337 337 337 337 337 337 337 337 334
320 324 325 328 346 352 350 352 351 351 352 352 352 350 350 351 350 351 352 350 349 348 347 347 347 346 346 345 345 344 343 343 343 341 341 341 341 341 341 340 340 340 340 340 340 341 340 340 341 340 340 340 341 340 340 340 339 339 338 338 338 339 338 337 338 340 339 339 339 340 343 343 341 339 340 340 337 336 336 336 336 336 336 336 335
321 325 325 325 343 351 350 353 352 349 351 351 349 349 349 351 351 351 351 350 349 348 347 347 347 346 346 345 345 345 343 343 342 341 341 342 341 341 340 340 340 340 340 340 340 340 341 341 341 340 340 340 340 341 341 340 339 338 338 338 338 338 338 338 339 341 342 341 340 340 340 339 339 338 340 342 339 336 336 335 335 335 335 335 335
320 324 326 323 340 350 347 349 350 349 350 347 344 346 348 349 350 350 350 350 349 348 347 347 346 346 346 345 344 344 344 342 342 342 342 342 341 340 340 340 340 340 340 340 340 340 341 341 341 341 341 341 341 341 342 341 339 339 338 338 337 337 337 337 339 340 342 341 341 341 340 339 339 339 337 339 340 339 337 334 334 334 334 334 334
318 323 327 324 338 345 341 344 348 348 348 345 343 346 348 349 350 350 349 349 348 348 348 346 345 345 345 345 344 344 344 343 342 343 342 341 341 340 340 340 340 340 340 340 339 340 341 342 343 343 342 342 342 342 342 341 340 339 338 338 337 337 337 336 338 339 340 340 340 340 340 340 340 340 338 337 338 340 339 336 334 333 333 333 333
317 321 326 325 338 343 341 344 347 346 346 346 346 349 349 350 350 349 349 348 348 348 347 346 345 345 345 345 344 343 344 343 343 343 342 341 341 341 340 340 341 341 340 340 340 340 341 342 344 344 343 343 342 342 342 341 341 340 339 338 338 338 337 337 337 338 339 339 339 340 340 340 339 338 338 337 338 338 338 337 334 333 333 333 333
318 320 323 325 337 345 346 347 346 345 346 348 349 350 350 350 349 349 348 348 348 347 346 346 345 345 346 346 345 343 344 344 343 343 342 342 341 341 341 341 341 341 340 339 340 341 342 343 344 344 344 344 342 342 342 342 341 340 340 339 338 338 338 338 337 338 339 338 339 338 339 340 338 337 337 336 337 337 338 338 335 333 332 333 333
317 318 322 324 335 346 348 346 345 346 348 349 350 350 349 349 349 348 348 347 347 347 345 345 345 345 346 345 345 343 344 344 344 343 342 342 342 341 341 341 341 341 340 340 340 341 342 343 344 345 345 344 343 342 342 342 341 340 340 339 339 339 339 339 338 338 339 338 338 337 337 339 338 336 336 336 336 337 337 337 335 333 333 333 332
316 319 323 323 334 346 348 346 346 347 348 349 350 349 347 347 348 348 347 347 347 346 346 346 345 345 346 345 345 344 344 344 344 343 343 342 342 342 342 342 341 341 341 341 341 342 343 344 344 345 345 344 343 342 342 341 341 341 340 339 339 339 339 339 339 338 339 338 338 338 338 339 337 335 333 333 335 335 335 335 335 333 332 332 331
316 318 323 325 335 346 347 346 348 347 347 349 350 349 346 346 348 348 348 347 347 346 346 346 346 346 345 344 345 344 344 344 344 344 343 343 343 342 342 342 342 341 341 342 341 342 344 344 344 345 345 344 343 342 342 342 341 341 340 339 339 339 339 339 339 338 338 339 339 337 337 337 337 335 332 331 332 334 334 335 335 333 331 330 329
315 318 323 325 336 346 345 346 349 347 347 349 349 348 348 348 349 348 348 348 347 347 346 347 347 345 345 344 345 344 344 344 345 344 344 343 343 342 343 343 343 342 342 342 343 344 345 345 345 345 345 344 343 342 342 342 341 341 339 339 339 338 338 339 339 339 339 339 339 338 337 336 336 335 334 333 332 333 334 334 335 334 333 331 329
313 318 323 324 333 345 345 345 348 347 346 348 349 348 348 349 349 348 348 348 348 346 346 347 347 345 345 345 345 344 344 345 345 344 344 343 343 343 343 343 343 343 343 343 344 345 346 346 346 346 345 344 343 342 342 342 342 341 341 340 339 338 339 339 340 340 340 339 339 339 337 336 336 334 334 334 332 332 334 334 333 334 334 333 331
314 317 323 324 330 341 345 345 346 346 346 348 349 348 349 349 349 348 348 348 347 346 346 347 347 346 346 345 345 345 345 345 345 345 344 343 343 344 343 343 344 344 344 344 345 346 346 346 345 346 345 344 343 343 343 343 343 343 342 342 341 340 340 340 340 339 339 339 338 339 338 336 335 332 332 335 334 333 334 334 333 332 333 334 334
317 318 323 326 328 336 342 344 345 345 345 348 349 349 349 349 349 349 348 347 347 347 347 347 347 347 346 346 346 346 345 345 344 344 343 343 344 344 344 344 344 345 345 345 346 346 346 346 346 345 345 344 343 343 343 343 343 343 342 342 342 342 341 340 340 338 338 338 337 337 337 337 334 330 332 336 334 333 334 333 332 331 331 332 333
318 319 322 326 327 332 340 344 345 345 345 347 349 349 350 350 349 349 348 347 348 348 347 348 348 347 347 347 346 346 345 344 342 342 343 344 344 345 345 345 345 345 345 345 346 346 346 346 345 345 345 344 343 343 343 343 342 342 341 341 341 341 341 341 339 337 336 337 335 333 334 336 335 332 333 335 332 332 333 331 331 331 330 329 329
319 321 323 325 326 329 338 344 344 344 345 348 350 350 351 350 350 349 348 348 348 348 348 348 348 348 348 347 347 345 344 343 342 342 343 343 344 346 346 345 346 346 346 345 346 346 346 346 345 345 344 343 343 342 342 342 341 341 341 341 341 340 340 340 339 335 334 336 334 332 334 335 335 334 334 334 332 331 331 331 331 330 329 329 328
321 322 323 325 326 330 339 343 343 345 346 348 351 351 351 351 350 349 348 349 348 348 348 348 348 348 348 348 346 344 343 344 342 342 342 342 344 346 347 346 346 346 346 346 346 347 347 346 345 344 344 343 342 341 341 341 340 340 340 340 340 340 340 340 338 335 332 333 334 334 334 335 334 334 334 333 332 331 331 331 330 329 328 329 328
323 323 324 326 327 331 340 343 344 344 345 347 351 352 351 351 350 349 349 349 349 349 348 349 349 349 348 347 345 344 343 343 342 341 341 342 344 346 346 346 347 346 346 346 347 347 347 346 345 344 343 343 342 341 341 341 341 340 340 340 339 340 340 339 338 336 332 331 334 334 332 333 333 333 333 333 331 329 329 329 328 328 328 328 327
324 324 325 327 328 335 343 343 344 346 347 349 351 352 351 350 349 349 349 350 350 349 349 349 349 350 349 347 344 344 343 343 342 341 341 342 344 345 346 346 347 346 345 346 346 346 345 345 344 343 342 342 341 341 341 341 341 340 340 340 340 340 340 339 337 336 333 332 333 332 331 332 332 332 331 330 328 327 328 328 327 327 327 327 327
325 325 326 331 337 344 349 348 347 347 345 346 348 349 350 351 350 349 349 350 350 349 349 349 349 350 350 346 343 344 344 343 342 341 341 342 343 345 345 345 345 345 346 346 346 346 345 344 344 343 342 341 341 341 341 341 341 341 340 340 340 339 339 339 337 336 334 333 333 332 331 331 331 330 329 327 326 327 327 326 326 326 327 327 327
324 325 332 340 343 345 347 347 345 343 338 338 340 339 338 342 345 348 350 350 350 350 349 349 350 350 350 346 344 344 344 343 341 340 340 342 343 344 345 344 344 344 346 346 346 345 344 344 344 343 342 342 341 341 341 341 341 341 340 340 339 339 338 338 337 336 335 334 333 332 331 329 330 329 327 326 326 325 325 325 325 325 325 326 327
325 333 342 344 343 344 345 343 342 341 338 338 339 335 332 332 335 343 350 351 350 350 349 349 351 351 350 347 344 344 344 343 341 340 340 341 343 344 344 344 344 345 346 346 345 344 343 344 343 342 342 342 341 341 341 341 341 340 340 339 339 338 338 337 337 336 335 333 332 331 330 329 328 326 325 326 326 324 323 323 322 322 324 325 325
334 344 347 346 344 344 344 342 341 343 342 340 341 339 335 333 332 337 347 351 350 349 349 350 352 351 351 348 345 344 343 343 342 341 341 341 342 344 344 344 345 345 345 345 344 343 343 343 343 342 341 341 341 341 340 340 340 339 339 338 338 338 337 335 335 334 333 331 330 330 329 328 327 325 325 326 325 323 322 321 320 320 321 323 324
343 346 347 347 345 343 343 342 342 343 342 340 340 338 335 335 333 332 340 347 349 350 349 351 352 351 351 349 347 345 344 344 344 342 341 342 343 343 342 344 344 344 344 344 344 343 342 342 342 341 341 340 340 340 340 340 339 339 338 338 337 337 335 333 332 332 332 331 329 328 327 327 326 326 326 326 324 322 321 320 320 319 319 320 320
345 346 346 347 346 343 343 343 343 342 341 339 337 335 335 335 333 331 332 339 346 349 350 351 351 351 351 349 348 347 346 346 344 342 342 344 344 343 342 344 345 344 344 344 344 343 342 341 341 341 341 340 341 340 340 339 339 338 338 337 336 335 333 332 330 330 330 329 328 327 326 326 325 325 326 324 322 321 320 319 319 319 318 317 318
343 346 346 345 345 344 342 343 342 342 341 338 336 335 334 334 333 332 332 338 346 349 349 350 351 350 350 349 348 348 347 347 345 344 344 344 344 343 343 344 344 343 344 344 343 343 342 341 341 341 341 340 340 340 339 339 338 337 336 335 334 333 332 330 329 328 328 327 326 325 325 324 324 323 322 321 320 319 320 319 319 318 316 317 318
342 346 346 344 343 343 341 340 340 341 340 338 337 335 335 335 335 334 335 341 347 348 348 349 350 350 350 349 349 349 348 346 345 344 345 344 344 343 343 343 342 343 344 343 342 342 342 341 341 341 341 340 339 338 338 337 336 336 334 333 332 331 331 330 328 327 327 326 325 324 322 322 322 321 320 319 319 320 320 319 319 317 316 317 318
343 345 344 342 342 341 339 338 338 340 339 338 337 336 336 335 334 335 340 346 348 348 348 348 349 350 350 349 349 348 347 345 343 343 344 344 343 342 341 340 340 342 342 341 341 341 341 342 341 340 340 339 338 337 336 335 334 334 332 331 330 330 330 329 327 327 326 325 324 322 321 320 321 320 320 319 319 320 319 318 318 317 316 316 318
343 344 342 341 340 339 339 338 338 338 338 337 336 335 335 333 334 340 346 348 348 348 348 347 347 349 349 349 349 347 346 345 343 341 342 344 343 341 340 339 339 339 339 339 339 338 339 340 340 339 339 338 337 336 335 334 333 332 331 330 329 330 329 328 326 326 325 324 323 322 321 320 319 319 319 319 319 319 318 317 317 317 315 314 316
342 343 341 340 339 338 337 338 338 337 337 336 335 334 333 332 338 345 347 348 348 348 347 347 347 348 348 348 348 347 346 345 343 341 341 342 341 340 338 338 338 338 337 337 338 338 338 339 339 338 337 336 336 334 333 332 331 330 330 330 329 329 328 327 327 325 324 324 323 322 321 320 318 318 318 318 317 317 316 316 315 315 314 313 314
342 342 339 338 339 338 337 338 337 336 335 335 335 334 333 337 344 347 347 347 347 347 347 347 346 347 347 348 348 347 346 345 343 342 341 340 339 338 337 337 337 337 336 337 338 339 338 339 339 337 336 335 334 332 331 330 329 330 329 329 328 328 327 327 326 325 324 323 323 322 322 321 319 318 318 318 316 315 315 315 315 315 315 314 313
339 339 338 338 337 336 336 336 335 334 334 334 335 334 336 344 346 347 346 346 346 346 346 346 345 346 346 347 347 345 344 343 342 341 340 338 338 338 338 337 336 336 336 336 337 338 338 339 338 336 335 334 332 330 329 328 328 328 328 328 328 327 327 326 325 325 324 323 323 322 322 322 321 320 319 318 317 316 316 315 315 315 315 314 313
336 337 336 335 335 333 333 333 333 334 333 333 334 337 342 346 346 346 346 346 346 346 346 345 345 345 346 347 346 345 343 342 341 340 338 338 338 338 338 336 335 335 335 335 336 337 338 338 337 336 334 332 331 329 328 327 327 327 328 329 328 327 326 325 325 324 324 323 323 323 322 322 321 320 319 319 317 317 316 316 316 315 313 312 311
334 337 335 334 334 333 332 332 333 333 332 333 338 343 345 346 345 345 345 345 345 346 345 345 345 345 346 347 346 345 343 341 340 339 338 337 336 336 335 335 335 335 334 335 336 337 338 338 336 335 333 332 330 329 327 326 327 327 328 328 327 326 326 325 325 324 323 323 323 322 321 321 320 319 319 317 315 315 316 317 316 314 312 311 308
337 338 337 337 337 333 332 332 333 332 334 339 344 345 345 345 344 345 345 345 345 345 344 344 344 344 346 346 346 346 344 343 341 340 340 338 336 335 335 335 335 334 334 335 337 338 337 336 335 334 333 332 330 328 326 326 326 327 328 328 327 326 325 325 325 323 322 322 320 319 319 318 318 317 314 310 310 314 316 317 316 314 312 310 308
341 339 337 337 336 332 331 333 334 337 341 344 345 345 345 344 344 344 345 345 345 344 344 345 345 345 346 346 346 346 345 344 342 341 340 338 338 337 336 335 334 333 334 336 337 337 337 335 334 333 331 331 329 327 326 326 326 327 327 327 326 326 326 326 324 322 320 319 318 317 316 316 316 311 304 303 308 313 316 316 315 314 312 309 307
338 337 336 336 333 331 332 336 341 344 345 344 344 344 344 344 344 345 346 345 344 344 344 345 344 345 345 345 345 345 345 344 343 341 340 338 337 336 336 335 335 335 336 337 337 336 335 334 333 332 330 329 328 326 325 325 325 325 326 325 325 325 325 325 324 323 319 316 316 315 314 315 313 304 298 303 311 314 315 315 315 314 311 308 305
337 336 336 336 333 333 338 342 344 345 345 344 344 344 344 344 345 345 345 344 344 344 344 344 345 344 344 344 343 343 343 342 342 343 342 340 339 338 338 338 338 337 337 337 336 335 334 333 332 331 330 329 328 326 325 324 324 324 325 324 323 323 324 324 324 324 319 315 315 315 314 314 309 300 300 309 314 314 315 315 314 313 310 306 305
338 338 339 339 338 338 341 344 344 344 344 344 344 344 344 345 345 345 344 344 343 344 344 344 344 343 343 343 343 342 342 341 341 342 342 342 341 340 339 339 339 338 337 336 335 334 333 332 331 331 330 329 327 326 324 324 324 324 324 323 322 322 322 322 324 324 319 316 316 315 314 312 304 299 306 313 313 312 313 312 311 310 308 307 308
334 335 337 339 340 340 341 343 344 344 344 344 345 345 345 345 345 344 343 343 343 344 344 344 343 343 343 343 342 342 341 341 341 341 341 341 340 339 339 339 338 337 337 335 334 333 333 332 331 330 328 327 326 326 324 324 324 323 323 322 322 321 321 322 324 323 319 317 317 316 313 308 302 302 309 312 311 311 311 310 309 309 308 308 309
330 331 331 333 335 337 338 340 341 342 343 344 344 344 344 345 345 344 344 344 344 344 344 344 343 342 342 342 341 341 340 340 340 339 339 339 338 338 339 338 337 337 336 334 333 333 333 331 329 328 327 326 326 326 325 323 323 322 322 322 322 321 321 322 323 322 318 317 317 316 312 308 303 305 309 311 310 309 309 309 309 308 308 308 308
327 328 328 329 331 332 334 336 338 340 341 341 341 341 342 343 344 344 344 343 343 343 343 343 343 342 341 341 340 339 338 338 338 338 337 337 336 336 337 337 337 336 335 334 334 333 332 330 328 327 327 326 325 325 325 324 323 322 322 322 322 321 320 320 321 320 318 317 315 314 312 309 305 305 307 308 307 307 308 308 307 307 308 309 308
325 325 326 326 327 329 330 331 333 336 338 339 340 340 340 340 342 342 342 342 341 341 340 340 340 340 339 338 337 336 336 336 336 336 335 335 335 335 335 335 335 335 334 333 333 332 332 330 328 327 326 326 325 324 324 324 323 322 322 322 322 321 319 318 318 317 316 315 313 311 309 307 305 304 304 304 303 304 305 305 305 307 309 309 308
323 324 325 325 325 326 327 327 328 330 332 335 337 338 338 339 340 340 340 340 339 338 337 336 336 336 335 334 334 334 334 333 332 332 333 333 333 334 333 333 332 333 333 332 331 331 331 330 328 327 326 325 325 324 324 324 323 323 322 322 322 321 319 317 316 315 314 313 311 309 307 306 306 305 304 303 302 302 303 303 305 308 309 308 308
322 323 324 325 325 325 325 326 327 328 329 331 333 334 336 338 339 339 338 336 336 335 333 332 332 332 331 330 330 330 330 329 328 328 327 327 328 330 330 330 330 330 331 330 329 329 328 328 328 327 326 326 325 324 324 324 324 324 323 323 323 322 319 317 316 314 312 310 308 307 307 307 307 306 305 304 303 303 304 305 306 308 309 308 308
319 321 322 323 324 324 324 325 325 326 327 329 329 331 333 335 336 336 335 333 332 332 331 330 330 329 328 327 325 325 325 325 325 325 323 322 323 325 326 327 327 327 328 328 328 328 327 327 327 326 326 326 326 325 325 324 324 325 324 324 324 323 321 318 316 314 312 310 307 307 307 307 307 307 306 305 305 305 305 306 306 307 308 308 307
317 318 320 321 321 322 323 324 324 325 326 327 327 328 329 331 331 331 331 331 331 331 330 329 328 328 327 325 324 322 321 321 321 322 322 321 320 320 321 323 324 325 326 326 326 326 326 326 326 326 325 325 325 325 325 324 324 324 324 324 324 323 322 319 316 315 312 309 307 307 307 307 307 306 305 305 306 307 306 306 307 308 307 307 306
Wind_Speed
13 12 16 17 23 28 25 26 29 29 30 33 31 30 34 34 30 27 30 34 31 30 29 26 29 27 25 25 24 27 27 24 23 25 25 25 24 23 25 26 25 25 23 22 23 22 22 20 18 20 22 19 18 18 18 17 18 18 16 16 17 18 17 17 16 10 6 10 7 6 6 4 4 5 5 5 4 4 8 7 8 12 12 11 10
14 11 15 16 23 28 24 25 29 28 28 32 32 32 34 34 31 27 30 34 32 32 30 27 28 28 26 25 24 25 26 24 22 23 24 25 24 22 26 27 25 25 24 23 24 23 23 21 18 20 20 19 18 19 18 17 17 17 16 15 16 17 16 16 17 12 6 9 7 5 4 4 4 4 4 5 5 4 7 8 9 12 13 13 12
16 10 11 12 21 26 22 24 28 28 28 31 32 33 33 33 32 29 30 34 32 32 30 27 27 27 25 25 24 24 24 23 20 21 23 26 26 23 26 28 25 25 25 25 24 23 23 21 19 20 19 19 19 19 18 18 17 17 17 16 15 15 14 14 16 14 9 7 9 4 2 3 3 4 5 5 5 4 5 9 10 11 11 11 11
17 12 8 8 16 22 19 21 25 27 28 29 31 32 31 32 33 31 32 33 32 32 31 28 26 25 25 24 25 23 22 23 21 20 21 25 28 25 25 27 25 25 25 24 24 23 23 21 19 21 22 20 20 19 19 19 18 16 17 17 15 13 12 14 15 15 13 7 5 2 2 3 2 4 7 5 5 3 4 7 8 10 10 9 10
17 14 11 9 11 17 19 22 23 23 26 27 29 31 31 32 33 32 33 33 32 33 32 29 27 26 26 25 25 22 22 24 23 22 22 24 27 25 24 25 24 24 24 24 24 23 23 21 19 21 23 21 20 20 19 19 19 17 16 16 15 14 13 13 13 15 15 10 6 2 2 2 2 6 8 5 6 5 5 6 7 8 9 8 8
16 14 13 12 9 13 19 23 22 21 24 28 30 33 32 32 33 32 34 34 33 33 33 30 29 28 27 27 26 23 22 25 24 23 24 24 26 25 23 24 24 24 25 24 24 23 23 22 20 21 23 23 20 19 19 19 19 17 17 17 17 17 15 12 10 13 15 13 11 8 4 2 1 7 7 3 5 7 7 7 7 8 8 8 8
14 13 15 14 9 11 13 17 20 21 24 27 30 33 33 31 32 32 34 35 33 34 33 31 29 28 27 26 27 25 22 24 24 23 23 23 24 24 23 24 25 25 25 25 24 24 24 23 22 22 22 22 21 19 19 19 18 17 18 18 19 18 17 14 9 11 13 13 14 13 10 7 5 4 5 3 4 5 7 9 8 9 8 8 8
15 12 14 18 11 10 11 13 18 22 24 26 27 29 31 32 32 33 34 34 34 35 33 31 30 28 28 26 26 25 23 23 23 22 23 22 23 24 24 25 25 25 25 25 24 24 25 24 23 22 20 21 22 21 19 18 17 17 17 16 17 18 18 17 13 12 13 12 13 13 12 11 10 9 8 4 2 3 6 8 9 9 10 9 8
17 14 12 18 13 12 18 19 20 23 24 27 28 29 32 33 34 33 34 34 35 35 32 31 31 29 28 27 26 25 22 23 23 22 24 24 24 25 25 25 26 26 25 24 25 25 24 24 23 22 21 21 21 20 20 18 17 17 17 16 15 15 17 17 16 14 14 14 13 13 12 12 12 12 13 10 6 4 4 5 7 8 8 10 10
17 15 12 14 16 19 26 25 23 24 25 29 30 30 31 32 33 33 33 33 34 35 32 30 31 29 28 26 25 24 22 24 23 23 25 24 25 26 25 25 26 26 25 24 25 24 24 24 23 23 23 21 20 19 19 18 16 16 17 16 16 15 14 15 15 13 14 15 15 14 13 12 11 10 12 13 9 6 4 4 9 10 7 9 11
16 16 14 13 18 25 29 27 26 26 27 30 28 30 31 31 33 33 32 32 32 34 32 31 30 29 28 26 26 25 23 25 25 24 26 25 24 26 24 24 25 24 25 25 25 24 23 24 24 24 23 21 20 19 18 17 17 17 17 16 16 15 15 14 14 13 13 15 16 16 14 13 12 11 12 15 11 7 5 4 9 13 11 11 13
17 16 15 14 17 23 26 26 28 28 27 27 27 30 32 31 33 32 31 31 31 33 33 31 30 28 28 27 27 26 24 26 26 24 26 25 24 24 23 23 23 22 24 26 25 24 23 24 24 23 22 21 20 19 18 17 16 16 16 16 15 16 16 15 15 14 14 16 18 17 16 15 15 14 13 14 14 11 6 3 8 13 11 11 14
17 16 14 12 14 18 19 22 26 27 27 26 26 31 32 31 33 31 30 30 31 33 33 32 30 28 29 28 28 27 25 26 26 25 26 25 23 24 22 22 22 23 25 26 26 25 23 23 25 23 22 21 20 19 18 16 15 15 15 16 16 15 16 17 18 17 16 17 19 19 19 18 17 16 14 12 14 12 8 4 5 11 9 11 14
17 16 14 11 13 17 17 19 23 25 27 26 26 31 31 31 33 31 30 31 32 34 33 32 31 29 30 29 28 27 26 26 25 24 25 23 23 24 22 21 22 24 25 25 26 26 24 23 24 23 21 20 20 19 18 16 15 14 14 14 15 16 16 18 19 19 18 18 19 20 20 21 20 18 16 17 17 12 10 7 3 5 9 12 13
19 17 15 13 14 19 18 19 23 26 27 25 27 32 31 31 34 33 32 32 33 34 33 32 31 29 29 28 27 26 25 25 24 23 23 22 22 23 22 22 23 23 24 25 24 24 24 23 23 22 20 19 19 19 18 16 15 15 14 13 14 15 16 18 20 20 20 19 20 20 20 20 19 18 18 18 19 14 11 10 5 3 5 7 8
20 17 16 15 16 18 17 20 24 27 27 25 28 32 30 30 33 33 33 32 32 34 33 32 30 29 28 27 26 25 24 23 22 22 22 23 24 24 24 23 23 22 23 23 22 23 24 23 22 21 20 19 19 18 18 16 15 15 15 14 14 14 14 15 17 18 19 19 20 20 20 20 18 19 20 18 18 17 13 11 8 5 4 3 3
20 18 17 17 16 16 17 20 26 27 26 26 29 32 31 32 33 34 33 32 32 33 32 31 29 28 27 27 25 25 24 22 22 24 26 27 25 25 24 23 22 22 22 22 22 23 24 23 21 20 20 19 18 18 18 17 15 15 15 15 15 15 14 13 14 15 17 19 19 19 18 19 18 18 19 16 15 16 15 12 9 7 6 4 3
21 19 18 18 17 17 17 21 28 30 28 28 30 32 32 32 33 34 34 32 32 33 32 30 29 28 27 27 26 25 23 22 24 30 32 27 23 23 23 22 22 22 21 21 21 21 23 22 20 19 19 19 18 17 17 16 14 14 15 15 15 15 15 14 13 11 12 16 18 17 16 18 17 15 15 14 14 17 16 13 9 7 8 8 4
19 18 17 17 18 17 17 21 28 32 31 30 31 32 31 32 33 33 33 31 32 33 31 30 29 27 26 27 27 25 23 23 27 31 30 27 23 22 21 20 21 21 20 20 21 20 21 20 19 18 18 18 17 16 15 14 14 14 14 14 15 15 15 16 14 9 8 12 15 14 15 18 18 13 11 13 14 17 16 14 11 8 7 7 4
17 16 16 18 19 18 20 24 29 32 32 31 31 30 30 32 33 34 33 31 31 31 30 29 28 26 26 27 26 25 24 26 29 30 29 28 25 20 20 20 20 20 19 20 21 20 19 19 19 17 17 16 16 15 14 14 14 14 14 14 14 14 14 15 14 10 9 13 15 14 15 17 17 13 11 13 15 15 15 13 11 9 5 4 3
16 16 16 19 20 18 22 28 31 30 30 31 31 30 31 32 33 34 34 32 32 32 31 30 28 27 28 28 27 27 27 29 31 30 30 30 25 19 20 21 20 21 20 20 20 19 19 19 18 17 16 15 15 15 14 14 14 14 14 14 13 14 13 13 13 8 5 9 15 17 17 14 12 13 13 15 17 15 15 13 12 10 6 4 4
16 17 16 18 19 18 21 27 30 28 27 30 30 29 30 32 34 35 34 33 33 33 32 31 29 29 29 29 29 28 29 30 31 29 28 28 24 20 20 20 21 22 22 20 20 19 18 18 17 16 15 14 14 15 15 15 14 14 14 14 14 14 13 13 14 9 4 6 10 14 15 13 12 15 17 18 16 13 12 12 11 10 8 5 6
17 16 16 17 18 16 18 23 27 28 29 31 30 30 32 33 34 34 33 33 34 33 33 31 30 31 31 30 31 30 30 31 30 27 27 28 26 23 21 21 22 22 21 20 19 19 19 18 17 16 15 14 14 15 16 16 15 14 14 14 14 14 13 13 11 8 7 9 10 9 11 12 14 18 18 15 12 9 9 8 9 11 9 7 7
17 16 16 15 13 10 11 14 17 19 23 23 22 23 29 34 36 34 33 33 34 32 32 32 31 31 32 32 31 31 31 30 28 26 28 29 27 25 23 22 22 20 20 20 18 18 18 18 17 16 15 15 15 15 15 15 14 14 13 13 13 13 13 12 10 7 6 7 9 9 11 12 15 16 13 10 9 10 8 6 7 9 9 8 7
18 17 16 13 12 10 9 10 9 12 17 21 18 14 16 22 28 32 34 33 34 34 32 32 33 31 31 33 32 31 30 29 28 27 29 29 28 26 24 23 21 20 19 18 17 17 17 16 16 15 15 15 15 14 14 14 14 13 12 11 11 10 10 9 8 8 6 5 7 11 13 13 13 13 11 9 8 8 7 5 5 7 8 7 6
18 16 15 13 12 11 10 10 10 12 16 19 21 19 18 18 19 24 33 35 32 33 33 32 32 31 31 33 33 33 31 28 27 28 28 29 28 27 25 24 22 20 19 18 18 17 16 15 15 15 15 14 14 14 14 13 13 12 11 10 8 7 6 6 6 6 4 6 9 11 13 14 14 13 12 10 9 8 8 7 7 6 5 6 7
14 12 14 15 13 12 13 11 11 15 16 16 21 24 22 20 18 22 25 36 34 32 33 31 30 31 32 33 33 32 31 29 27 28 29 29 28 29 28 26 24 22 20 19 18 16 14 13 14 14 15 14 14 14 13 11 11 10 9 8 6 4 4 4 6 6 5 7 10 11 12 14 15 13 11 11 12 11 10 10 10 8 6 7 7
14 13 15 16 14 13 13 12 11 14 16 17 22 24 21 22 19 23 18 26 35 33 32 30 29 30 31 31 32 32 31 30 28 29 31 29 28 30 29 24 23 22 20 19 18 15 14 13 13 14 15 14 13 13 12 11 10 9 8 6 3 3 5 6 7 8 9 11 12 12 12 14 14 12 12 13 14 13 12 12 11 9 9 8 7
15 14 15 15 14 13 13 13 12 14 16 17 19 22 22 24 24 20 20 21 30 32 30 29 28 28 30 30 31 30 30 29 27 29 30 27 26 27 25 20 18 17 17 17 16 14 13 13 13 14 14 14 13 12 12 12 11 9 9 7 5 5 6 7 8 11 13 13 13 12 12 12 12 12 13 13 13 12 12 13 12 10 8 9 9
14 12 13 14 15 15 14 12 11 13 17 19 17 20 24 27 28 27 29 28 28 30 28 27 27 27 29 29 29 29 28 27 27 28 29 26 24 24 22 18 15 13 14 16 14 13 14 14 14 14 14 13 13 11 11 11 10 9 9 8 7 6 5 7 10 12 13 13 11 11 11 11 12 12 12 12 12 13 12 11 11 9 7 9 8
16 13 14 14 15 17 15 11 10 14 18 21 21 20 23 26 26 31 36 31 27 28 26 27 26 26 28 28 27 28 27 27 27 29 29 25 24 24 22 19 17 16 17 17 14 13 14 14 14 14 13 13 13 11 10 10 9 8 8 7 6 5 5 8 11 11 13 13 11 10 12 12 13 13 12 12 12 11 11 10 10 8 7 6 3
17 15 15 15 16 17 16 12 10 14 18 20 20 20 21 22 26 34 34 29 26 25 25 25 25 26 27 27 27 26 25 26 29 31 30 26 26 25 23 20 20 20 20 19 16 14 13 14 14 13 13 13 13 12 11 11 10 9 8 6 6 7 8 10 11 11 14 14 11 11 13 13 12 13 12 12 11 9 8 8 7 7 6 4 2
15 16 16 15 14 12 13 12 11 16 19 19 21 23 22 26 35 34 29 27 25 24 24 24 24 26 26 26 27 26 25 26 30 33 31 28 27 25 23 21 20 19 18 17 15 13 12 15 14 14 13 14 13 13 13 12 10 11 11 7 7 10 11 11 13 14 14 14 12 12 13 12 12 12 11 11 10 7 7 6 6 5 4 4 4
13 16 15 13 12 10 10 12 14 18 22 22 25 26 26 35 35 28 26 24 24 24 23 23 24 25 25 26 27 26 25 26 27 28 26 25 25 24 22 21 20 18 16 14 13 12 14 16 15 14 14 14 14 13 13 11 8 11 13 11 10 12 12 12 14 15 14 14 13 13 13 11 11 11 10 10 10 8 7 6 4 4 3 3 4
12 14 14 11 11 11 9 10 13 17 21 22 23 25 31 34 28 26 25 24 24 23 22 22 24 25 25 26 25 25 26 26 25 26 25 25 24 23 22 21 20 18 16 14 13 14 17 18 16 15 15 15 14 12 9 7 7 13 16 14 13 13 13 13 14 15 14 13 12 12 11 9 9 10 10 9 9 8 7 6 6 6 6 4 2
14 13 13 12 13 15 15 14 16 18 20 21 23 30 33 27 26 25 24 24 23 22 21 21 22 24 25 25 24 25 27 26 26 26 26 26 25 24 23 22 20 18 16 14 14 16 19 19 16 15 15 14 12 9 6 6 13 19 18 15 14 14 14 14 14 14 14 12 11 10 10 9 9 9 10 8 8 8 8 8 8 8 8 6 3
19 17 17 17 18 20 22 21 18 16 16 19 29 35 28 25 25 23 23 23 21 21 21 20 21 22 23 23 23 24 27 27 27 27 26 26 25 25 23 22 21 19 16 14 16 19 19 18 16 15 14 14 11 7 5 11 20 21 17 15 15 15 14 14 14 13 13 12 10 9 10 12 11 10 11 9 9 10 9 9 10 11 10 7 5
19 18 19 20 21 21 22 21 17 15 21 29 32 28 25 23 23 23 23 22 20 20 21 21 20 20 22 23 23 23 25 27 28 28 26 25 25 23 22 21 21 19 17 17 20 20 18 17 17 15 13 13 10 7 9 18 24 21 17 15 15 16 15 14 13 13 13 13 10 8 10 12 11 10 9 9 10 12 9 9 13 14 12 8 5
17 18 18 19 22 23 22 20 18 23 32 32 26 25 23 21 21 21 21 20 20 20 21 21 20 20 22 23 23 23 24 26 27 27 23 22 21 19 18 19 19 18 19 21 21 19 18 17 17 15 13 12 10 8 14 23 25 20 16 14 15 17 17 15 14 13 13 13 11 9 9 9 8 7 7 9 13 13 8 8 12 13 12 10 6
11 18 23 23 25 24 19 20 26 29 28 26 25 24 21 20 20 19 18 18 19 20 20 20 19 20 22 22 22 22 23 23 25 24 21 20 19 17 17 18 19 21 22 20 19 18 17 17 16 14 13 11 9 11 18 24 24 19 15 13 12 14 16 16 15 15 15 13 11 10 9 7 5 4 7 13 15 12 6 7 11 12 14 12 9
9 11 20 23 22 21 23 25 25 25 24 23 22 21 19 19 19 18 17 18 20 21 21 20 19 20 21 21 20 21 20 20 23 25 24 23 22 21 22 23 23 22 20 18 18 18 18 17 15 13 11 9 7 11 20 24 22 19 15 12 11 11 12 14 15 15 16 14 11 10 9 6 4 4 10 16 14 9 7 10 12 14 15 14 12
12 9 15 20 19 20 22 22 23 23 22 22 21 20 18 17 17 16 18 19 19 19 20 19 19 20 20 19 19 20 19 17 19 22 23 22 22 23 24 22 20 18 17 17 18 18 18 17 13 10 11 9 6 10 20 24 21 19 16 11 10 10 10 11 12 13 15 16 12 9 9 7 5 8 14 15 10 6 7 10 11 14 16 15 14
14 11 12 16 16 13 13 17 20 21 21 21 21 19 18 17 16 16 19 21 19 19 19 18 18 19 19 19 19 19 17 15 16 19 19 18 18 19 19 17 16 17 17 17 18 18 17 15 13 12 13 11 7 8 18 23 20 17 16 11 8 7 8 9 10 12 16 17 10 7 9 9 9 12 15 13 9 7 9 11 13 16 18 17 14
14 15 17 18 15 12 14 16 16 18 19 20 21 19 17 17 17 18 19 19 18 19 19 17 17 19 20 20 19 17 15 15 16 18 18 17 15 15 15 15 16 18 17 17 18 18 17 14 14 15 15 13 10 9 14 20 19 16 14 12 8 6 6 8 9 12 17 17 11 9 12 12 13 15 15 13 10 9 11 14 16 17 18 17 14
15 18 20 20 18 18 20 21 21 22 21 21 24 22 17 14 16 19 18 17 17 19 20 19 19 21 21 20 18 16 16 16 16 16 17 16 13 12 12 13 15 16 17 17 17 16 15 16 17 17 16 14 12 10 13 16 17 15 13 11 8 5 5 6 7 11 17 17 13 13 15 15 14 15 15 13 10 9 12 14 15 16 16 13 11
17 19 20 20 19 20 21 21 22 23 22 22 25 26 21 18 18 20 20 21 22 22 23 21 20 19 19 19 20 20 19 17 16 15 15 13 11 11 10 9 11 13 15 16 15 15 15 17 17 15 14 13 12 12 15 17 16 15 13 12 9 6 5 6 8 12 16 17 16 17 17 17 16 15 14 12 11 11 13 13 14 14 10 6 8
19 19 20 21 20 19 20 21 21 21 21 21 23 24 22 20 22 23 23 24 25 24 23 23 22 21 20 21 22 23 22 20 18 16 13 10 9 10 10 8 9 11 13 14 14 13 13 16 17 15 13 13 10 11 16 19 18 15 13 12 11 8 6 8 12 16 18 18 18 19 19 19 18 15 13 12 12 14 16 16 15 12 5 3 6
23 23 22 22 21 19 20 21 21 21 24 24 21 19 18 18 20 22 23 25 26 25 25 25 25 24 23 22 22 21 20 20 18 16 14 12 11 11 10 10 9 9 10 11 11 8 8 14 18 16 14 13 11 10 14 19 21 19 15 14 13 10 8 9 14 19 21 20 21 22 21 20 19 17 15 14 13 15 16 17 17 10 4 5 6
24 24 23 23 23 22 23 23 22 24 28 29 25 21 19 19 20 22 25 27 27 26 25 25 25 24 23 21 20 20 20 19 18 17 16 15 14 13 13 12 11 10 10 11 11 11 12 15 17 15 13 13 13 12 12 14 19 21 18 14 13 12 11 11 12 17 20 22 24 24 22 21 19 18 17 16 14 14 14 14 14 7 3 3 4
24 24 25 27 27 25 25 25 24 25 28 28 26 25 24 24 23 24 25 26 26 25 23 22 21 21 20 19 19 20 20 20 21 21 21 20 18 16 15 15 13 11 10 10 11 12 13 14 15 14 11 9 10 12 10 9 13 17 17 16 15 13 12 12 12 14 17 21 24 24 22 21 20 19 18 17 15 14 14 14 13 8 4 4 6
24 23 23 26 27 27 27 26 24 26 27 26 24 25 26 25 24 23 23 23 23 22 20 18 19 19 18 17 17 18 19 22 23 23 24 24 22 20 18 16 15 13 12 11 12 12 12 11 12 12 10 8 7 10 11 9 10 14 16 16 16 15 14 13 13 14 17 21 23 23 21 20 18 18 18 18 16 15 15 15 13 8 6 9 12
Wind_Direction
241 197 204 201 170 165 160 160 168 166 167 170 172 171 168 170 177 179 175 175 174 173 175 171 168 172 175 178 179 179 187 194 194 194 192 184 181 180 180 184 187 189 192 192 194 199 204 211 210 194 191 200 207 212 219 219 222 227 219 214 220 225 229 231 241 244 170 136 134 155 167 186 193 201 210 198 222 206 167 171 182 179 174 160 152
244 203 199 201 171 166 161 158 164 163 167 171 170 169 167 169 175 177 175 176 176 175 177 175 172 174 177 181 181 179 187 195 194 192 188 183 181 182 183 182 184 189 192 192 196 200 205 212 206 190 189 199 209 214 218 222 223 222 216 217 222 226 228 227 234 238 189 147 147 152 160 185 190 194 210 198 209 207 168 176 177 173 173 155 146
241 216 195 192 163 163 160 156 161 161 166 170 169 168 166 169 174 176 176 177 177 177 177 176 175 177 177 179 180 179 187 195 196 191 186 184 185 184 181 180 183 189 193 195 199 202 205 211 204 191 191 199 208 212 215 221 225 219 213 218 225 229 231 230 233 236 225 171 155 163 172 169 188 205 208 194 203 220 172 174 173 168 169 153 148
235 222 200 196 160 157 155 153 159 161 165 169 169 169 167 169 173 175 176 177 177 177 176 176 175 177 177 179 181 182 187 192 196 196 188 183 182 180 177 178 182 188 194 197 199 202 207 210 204 195 197 203 208 211 213 218 224 222 215 217 222 225 228 232 233 228 227 205 154 171 186 169 223 193 181 181 190 209 170 179 186 177 176 166 160
230 220 199 203 168 153 151 154 160 162 166 170 170 170 170 171 174 176 177 177 177 176 175 174 174 176 176 177 181 182 185 191 197 198 187 175 175 177 177 179 184 190 194 198 199 203 206 209 206 197 200 205 208 210 212 217 220 220 218 219 222 227 226 226 223 213 219 221 193 200 168 187 245 161 159 176 186 196 187 188 199 186 185 187 177
235 219 196 199 170 148 153 157 164 165 168 172 172 173 173 172 173 175 177 177 178 176 175 175 175 177 176 175 179 180 183 192 199 194 181 170 169 175 181 184 188 193 196 198 199 201 205 208 207 202 202 206 208 210 212 217 219 216 217 218 219 228 233 231 216 201 214 224 217 229 237 239 235 150 154 166 181 198 196 188 200 196 195 196 186
246 224 195 196 169 143 154 157 161 167 172 175 174 175 175 173 173 174 177 178 177 176 175 176 177 179 180 178 181 182 183 191 196 188 178 171 169 175 184 187 192 197 199 199 199 200 203 206 207 206 205 207 208 210 212 218 221 220 221 216 213 221 230 237 226 196 205 219 220 232 241 244 257 198 180 160 163 201 203 198 207 209 210 208 196
247 235 197 191 172 139 151 156 165 172 175 175 175 177 175 174 176 175 176 178 178 176 176 178 179 180 183 182 184 186 183 185 188 181 175 174 175 180 187 190 195 200 201 200 199 200 202 204 208 208 206 205 207 210 214 217 218 221 229 225 216 216 221 229 229 207 204 213 216 228 237 236 244 244 233 218 183 191 191 198 208 209 216 217 205
239 242 209 186 167 150 160 165 175 178 175 175 179 181 176 176 177 176 176 176 177 179 179 180 181 183 185 184 184 186 182 179 181 177 174 177 180 185 190 193 197 202 203 202 200 201 203 203 207 209 207 204 204 208 213 218 218 219 227 233 228 221 217 221 226 220 216 214 209 216 227 232 236 240 239 237 236 221 182 178 188 195 215 219 208
235 240 230 188 160 157 164 166 174 178 179 181 181 179 176 176 177 176 175 173 176 181 179 179 182 184 187 185 182 182 179 176 178 177 177 181 184 187 191 193 197 202 202 202 202 204 204 203 206 208 209 206 202 206 212 216 220 219 222 231 234 228 220 219 224 226 223 214 209 211 213 220 227 231 229 228 231 235 217 179 175 179 194 207 203
228 235 232 192 157 157 164 165 169 175 182 184 179 174 173 174 176 175 174 174 178 180 178 180 184 185 187 186 182 183 179 175 177 177 178 184 187 188 191 191 196 200 199 201 206 206 204 203 206 208 209 209 205 207 212 214 218 221 223 227 231 229 226 226 227 230 225 214 213 216 216 221 226 225 221 215 216 223 219 182 171 181 185 184 188
220 229 223 191 161 159 164 164 168 174 180 181 174 170 172 175 175 173 174 175 177 178 179 182 186 185 187 186 184 187 183 176 177 177 178 185 187 187 189 189 193 196 198 203 208 208 206 204 206 208 208 208 207 208 212 215 217 220 223 225 227 226 227 227 225 228 228 223 224 220 218 229 237 244 245 225 214 214 214 189 170 185 184 171 178
218 223 214 188 165 162 164 164 168 173 177 178 171 168 174 178 174 173 176 176 175 178 180 182 185 186 186 186 187 191 187 178 178 178 180 186 185 184 187 185 189 195 199 205 208 208 208 205 205 208 207 207 208 210 212 214 216 217 221 223 224 226 226 226 225 224 221 225 232 227 221 228 236 254 280 270 240 219 206 227 192 182 166 150 169
218 218 207 189 164 160 165 166 167 169 174 176 168 167 175 178 174 174 177 178 177 179 181 182 185 187 186 189 190 191 187 179 179 180 180 183 181 182 186 186 189 197 202 206 208 208 208 206 206 206 207 208 209 210 212 213 214 215 219 221 223 226 227 227 227 227 222 220 229 232 232 236 234 242 262 266 258 233 198 221 229 156 142 144 165
215 213 200 187 165 162 168 168 164 166 173 174 168 170 177 177 175 177 179 179 178 179 181 183 186 187 187 191 192 189 184 177 175 176 176 178 180 184 189 192 194 199 204 207 207 206 206 205 205 205 206 208 210 212 213 214 215 214 217 221 221 223 227 229 229 233 231 223 223 227 232 238 236 236 240 240 248 244 212 211 208 140 137 148 170
212 208 194 184 172 168 169 163 160 164 171 173 170 172 179 177 177 181 180 178 178 179 182 185 185 185 187 189 188 183 180 173 168 169 175 182 185 188 191 194 198 201 204 206 204 202 203 203 204 206 206 207 211 212 212 213 214 215 217 219 220 221 225 232 233 237 237 232 231 229 230 235 232 232 232 225 234 238 221 213 215 196 185 171 179
209 205 188 180 175 173 170 161 161 166 171 174 174 175 176 176 179 183 181 178 177 178 182 184 182 182 184 185 183 178 175 168 162 169 182 188 189 190 193 195 198 200 200 201 199 199 201 202 203 206 208 209 210 212 214 214 213 216 221 222 224 225 225 232 237 240 243 241 238 233 232 237 236 232 229 221 231 234 216 212 228 230 224 209 190
207 202 184 177 177 176 172 163 163 168 173 175 177 177 175 175 178 181 181 180 177 177 181 181 179 180 180 180 180 175 168 162 167 178 186 188 187 189 193 195 196 197 196 194 195 197 199 201 203 205 208 209 210 213 215 214 213 218 226 229 232 231 228 231 234 242 254 251 243 239 241 246 244 239 230 221 233 237 219 211 227 246 252 244 232
203 197 178 174 179 180 172 163 162 169 176 178 178 177 175 176 177 179 183 181 176 176 179 178 179 179 176 177 176 167 159 165 181 189 188 185 185 186 188 191 191 190 190 189 190 194 197 199 201 202 206 208 209 212 212 212 217 223 229 235 240 241 237 236 235 239 257 253 244 240 244 247 244 240 233 227 238 240 225 215 225 244 259 251 236
197 191 177 172 178 183 173 164 163 169 177 179 177 177 175 175 176 179 182 181 177 177 176 176 178 176 175 175 167 156 160 177 190 194 191 187 184 180 181 185 185 183 184 184 186 190 193 195 197 198 202 205 208 213 214 216 222 227 233 237 242 247 248 249 247 240 242 252 251 240 236 240 237 229 221 218 225 229 218 210 220 236 251 249 212
189 185 179 172 177 183 170 165 168 172 177 179 177 176 175 174 177 180 182 179 176 176 176 176 176 175 176 170 156 154 169 184 191 191 190 188 182 176 179 182 182 182 183 183 184 188 190 191 194 196 199 204 210 217 219 222 224 229 235 238 242 248 252 258 259 245 225 247 251 241 236 238 230 220 214 203 202 208 206 205 216 229 237 242 222
184 183 178 171 177 181 168 165 168 170 177 180 177 176 175 175 177 180 181 178 176 175 175 176 176 176 175 161 152 162 177 185 189 186 185 188 182 175 180 185 187 187 186 185 185 188 190 190 192 198 203 208 214 219 221 221 221 226 232 236 240 244 247 255 260 255 230 233 239 232 229 227 210 205 207 200 196 204 206 206 214 219 222 234 228
182 181 175 170 177 177 166 165 167 170 177 180 177 175 175 176 178 180 180 179 177 175 173 175 177 177 168 152 153 170 182 187 189 184 183 186 181 176 181 189 192 190 190 189 187 189 191 191 193 201 208 213 216 220 220 219 220 224 229 234 239 241 243 246 247 244 234 239 242 223 209 207 193 189 196 198 194 197 196 199 209 211 209 213 219
182 179 171 167 166 153 145 154 160 161 165 169 174 178 178 176 177 179 180 178 175 173 173 174 176 175 162 148 156 172 181 187 188 184 183 184 183 180 181 187 192 193 193 191 186 189 193 192 193 199 209 215 218 221 221 220 222 225 229 238 244 243 242 243 242 236 226 230 234 209 182 175 173 175 182 187 183 177 177 193 206 204 201 203 211
180 175 161 144 130 125 130 139 138 133 141 153 165 185 196 188 182 179 177 177 175 172 174 175 173 170 157 149 159 173 178 184 187 184 184 184 184 182 179 182 189 194 195 191 186 190 194 192 193 202 213 217 218 221 223 222 225 230 235 245 254 250 243 244 242 233 217 193 193 192 183 175 173 174 171 172 176 170 167 171 174 182 191 194 194
175 160 139 123 125 137 137 132 129 131 143 156 160 171 194 204 208 197 178 173 175 173 173 174 169 163 154 150 161 173 177 182 186 185 185 184 183 182 181 182 186 190 192 190 187 189 190 191 197 210 219 221 222 224 225 225 227 233 236 242 259 259 241 230 214 203 189 167 166 176 186 188 185 176 164 165 172 164 154 138 121 131 159 167 164
155 132 125 126 133 137 131 131 137 140 147 153 154 164 177 184 217 235 194 172 173 174 171 169 163 157 154 153 161 170 173 177 183 186 186 185 185 184 183 184 184 186 188 187 185 184 188 196 202 212 220 224 225 223 224 226 227 231 231 234 250 237 191 176 173 165 149 156 165 171 182 188 185 177 168 168 168 158 151 146 132 126 136 149 158
126 124 129 131 133 132 131 137 141 139 139 140 149 162 166 167 202 255 242 181 172 171 168 164 158 155 156 157 161 166 171 174 179 183 183 186 189 185 183 184 186 186 184 182 179 177 186 201 209 213 218 223 225 223 224 226 227 228 222 216 210 176 161 144 139 144 145 151 159 164 171 179 184 185 180 173 167 159 153 156 161 157 151 155 164
113 125 132 130 132 135 137 140 141 140 138 136 147 160 161 166 186 226 248 211 177 165 162 158 155 156 157 159 161 164 168 170 173 179 183 188 191 186 183 185 187 186 182 178 177 176 185 204 216 215 215 218 222 223 221 216 213 215 207 187 158 146 148 138 134 141 146 147 152 156 160 167 171 173 176 175 174 171 165 168 177 179 169 163 162
118 129 134 133 137 142 141 137 138 143 145 148 158 166 166 168 175 193 222 218 179 159 158 154 152 157 158 159 160 160 163 165 168 175 182 189 190 186 186 186 179 178 178 177 179 180 185 201 215 216 211 211 215 219 219 210 200 195 188 174 156 144 139 140 142 143 141 137 142 148 153 162 167 167 170 174 176 175 175 177 176 178 180 174 170
135 140 140 136 138 145 146 139 141 149 153 159 165 170 167 164 175 198 215 206 170 155 158 155 154 158 158 158 159 158 159 161 165 171 177 185 188 187 191 189 179 176 176 177 180 181 185 199 212 214 208 205 211 217 222 219 207 191 176 162 156 160 155 147 144 142 139 136 139 148 149 154 163 166 165 166 169 170 172 171 164 167 178 175 164
143 143 141 140 141 148 150 144 149 156 156 160 163 160 157 168 197 210 203 181 159 156 158 157 157 160 160 160 159 155 155 159 167 172 176 183 187 188 192 190 185 183 182 183 181 177 191 207 210 208 206 206 211 217 225 232 228 207 181 154 153 167 161 149 143 142 143 141 141 148 150 152 159 163 165 168 169 167 166 165 156 159 171 175 134
148 147 142 143 144 145 143 146 159 160 155 161 162 153 161 195 211 203 179 160 155 156 157 158 160 161 161 159 156 155 156 162 171 176 178 183 187 188 190 189 187 185 186 186 175 169 198 216 208 203 205 206 211 216 223 232 233 212 190 162 147 156 156 152 149 146 147 146 143 145 149 156 165 167 171 175 175 175 177 173 158 152 171 204 208
153 147 142 142 142 137 139 152 162 157 157 166 163 157 183 210 206 179 157 154 154 153 156 160 160 161 161 157 157 160 160 159 165 169 173 181 186 187 188 186 183 183 186 183 168 171 206 216 208 204 203 203 210 214 217 228 228 203 186 163 148 151 153 154 153 150 150 151 150 149 148 155 165 168 173 177 176 180 184 179 165 154 165 194 206
145 138 137 136 134 134 139 149 155 159 163 163 159 175 202 206 182 154 151 153 150 152 158 160 161 162 162 160 160 162 159 153 154 161 168 175 179 182 184 181 179 184 187 178 171 188 211 213 208 204 196 196 204 205 210 224 202 181 169 153 148 152 151 150 149 148 149 148 149 152 152 154 159 163 171 171 168 173 172 163 153 142 143 153 164
144 142 143 142 146 148 150 156 164 166 160 156 175 202 206 182 152 146 150 149 150 155 157 160 164 163 162 161 159 159 159 156 156 162 167 170 173 180 182 177 175 181 183 177 182 202 212 208 202 197 189 190 193 193 202 193 171 165 157 146 147 149 145 144 144 144 145 146 151 159 161 162 160 165 174 168 157 162 162 159 155 142 141 151 138
141 146 151 151 153 152 152 158 159 153 155 179 199 200 182 150 142 147 147 147 153 155 154 160 165 164 163 162 156 155 161 164 164 167 169 171 175 180 180 178 176 176 177 184 196 205 207 200 193 190 189 190 186 185 193 175 164 159 150 142 145 145 141 141 142 143 147 153 164 174 174 171 166 171 181 176 164 163 161 163 159 138 126 129 116
138 147 151 146 145 149 150 148 144 159 189 202 196 175 149 141 145 146 146 151 154 153 156 162 166 164 161 160 157 156 160 166 172 176 176 175 177 178 179 181 175 171 180 194 198 200 198 192 186 186 193 194 187 188 186 171 162 156 145 140 146 146 143 144 146 148 154 162 169 170 168 167 165 171 182 183 177 171 167 176 169 140 114 110 114
127 132 131 126 129 135 138 142 163 192 198 191 169 146 139 141 142 143 149 152 151 155 159 159 163 163 158 159 161 161 161 166 175 183 182 177 176 178 178 175 171 177 194 198 192 190 187 183 182 187 198 196 184 183 179 168 161 156 145 140 148 152 151 153 154 153 158 164 162 153 154 156 159 173 182 178 181 181 180 187 176 146 118 115 125
96 114 118 117 122 131 146 171 184 185 175 157 142 137 138 138 141 146 149 149 152 155 155 156 159 157 155 157 159 160 163 164 168 176 182 179 179 183 181 179 183 192 196 188 180 180 176 172 175 182 188 186 177 178 176 168 165 165 152 133 137 151 158 162 162 158 158 161 158 152 154 152 149 174 173 169 179 191 185 174 170 151 136 132 127
57 100 117 120 130 153 174 179 169 153 141 137 136 134 134 136 141 145 146 149 152 152 151 156 158 153 152 155 155 156 161 160 157 162 169 173 176 181 184 185 188 188 183 173 171 173 166 163 168 171 170 170 172 177 176 173 175 176 163 133 119 134 154 164 169 168 159 155 157 158 158 163 175 183 170 169 180 190 164 160 168 161 150 140 132
79 106 131 137 153 172 171 155 141 133 132 134 132 128 130 135 140 143 146 146 145 147 151 154 155 153 152 152 150 149 152 154 151 153 158 163 167 171 174 177 177 174 167 163 165 163 156 153 155 156 159 162 165 177 179 181 184 184 178 155 121 128 152 164 178 180 158 146 151 161 162 173 186 175 168 168 172 171 152 154 161 155 143 132 131
70 77 103 123 140 152 134 124 131 134 132 132 131 130 133 137 138 141 145 146 147 150 153 154 154 151 145 142 142 143 146 150 148 148 151 152 153 157 162 167 166 161 156 154 155 153 149 149 147 144 146 145 140 168 183 187 192 191 186 173 138 135 160 171 188 189 162 149 154 163 161 169 174 169 168 163 153 141 136 134 135 135 132 129 132
51 51 61 75 87 84 73 78 96 109 117 124 126 126 129 134 140 143 144 146 150 150 148 144 137 129 126 129 131 132 135 135 136 140 143 140 141 148 157 163 163 158 155 152 152 151 148 146 140 133 132 135 138 158 185 194 199 198 191 179 157 142 157 173 187 180 164 162 171 168 162 167 168 167 167 162 149 133 128 132 136 134 134 134 136
49 52 57 62 69 72 69 66 72 82 93 103 109 108 102 105 126 135 129 121 120 121 120 116 110 111 118 122 120 117 120 124 128 133 134 134 136 140 150 162 165 160 156 153 154 157 153 145 139 132 130 137 147 163 187 199 202 201 193 181 170 153 145 157 167 165 165 169 171 164 162 164 166 169 169 163 152 137 134 141 143 137 136 142 148
47 49 53 56 60 66 70 68 69 76 82 88 94 94 85 85 105 115 111 106 104 104 105 105 104 107 111 112 107 103 103 107 112 118 123 131 142 145 149 160 162 160 159 157 161 166 155 143 140 139 139 143 152 170 187 196 202 202 192 181 177 165 136 123 131 149 161 164 159 159 163 162 163 168 168 160 151 143 140 142 142 140 141 154 167
45 46 51 56 57 57 61 61 58 65 75 81 89 92 90 92 100 105 107 107 104 101 100 101 103 103 102 102 102 100 101 101 102 105 109 117 137 154 159 156 153 160 161 156 158 166 159 147 142 143 147 151 157 173 183 188 196 201 194 183 179 169 140 125 131 144 154 156 155 159 160 158 157 157 155 153 149 144 143 148 153 152 128 93 153
48 46 51 59 59 55 57 57 52 54 64 71 80 93 100 99 99 103 107 105 101 100 98 98 101 101 99 101 104 105 106 105 103 107 111 111 123 143 148 138 134 142 145 139 138 145 154 150 145 144 150 155 159 174 185 189 194 198 194 185 176 166 154 146 146 151 154 154 156 157 154 152 152 149 144 145 145 145 150 158 165 158 78 68 138
48 48 51 58 60 56 56 55 51 52 57 59 60 68 82 92 96 102 104 102 101 102 99 97 100 99 98 101 105 108 110 110 109 110 108 105 114 131 136 131 123 124 132 137 132 125 130 140 142 146 158 165 169 178 187 192 197 200 200 196 186 175 170 169 166 161 157 154 153 153 151 149 148 145 143 143 145 149 157 167 173 165 87 89 148
45 48 51 54 57 57 56 54 51 51 55 55 53 56 65 75 83 92 99 99 100 100 98 98 99 98 98 100 103 106 110 113 116 115 109 102 102 111 119 120 115 116 128 139 136 127 128 139 147 150 159 170 176 177 173 177 193 200 204 205 203 196 190 183 174 167 164 161 156 152 152 153 151 149 149 150 154 159 162 167 174 173 156 160 154
42 44 49 52 54 55 56 56 54 53 55 56 54 54 59 66 73 83 90 93 94 95 95 95 97 100 102 104 107 110 113 113 115 116 115 109 101 95 96 100 104 111 117 121 125 124 126 141 153 150 141 133 142 159 162 162 173 187 194 198 201 205 204 195 185 178 173 168 160 154 152 153 152 151 151 154 160 164 164 167 173 170 151 148 139